Torna al catalogo

COSMOS 2251 DEB

AttivoLEO
NORAD 35705·DEBRIS·🇷🇺 Russia

Lanciato Jun 16, 1993 da Plesetsk Cosmodrome

Loading…

Prossimi Passaggi (prossime 24 ore)

TLE

AggiornatoSource: Space-Track

Epoca: Sep 13, 2026, 11:09 UTC

1 35705U 93036AQA 26256.46477536  .00012503  00000-0  15669-2 0  9994
2 35705  74.2700 324.3542 0019674 194.0496 166.0139 14.82124831899843

Traccia COSMOS 2251 DEB in tempo reale con AllMySat

Download on the App Store